Las Vegas, NV

3:18 AM PST on December 13, 2017 (GMT -0800)
McCarran International

Weather History for KLAS - December, 2013

Change the Weather History Date:

Sunday, December 8, 2013

  Actual Average Record
Temperature  
Mean Temperature 36 °F 48 °F  
Max Temperature 42 °F 57 °F 77 °F (1939)
Min Temperature 29 °F 39 °F 23 °F (1953)
Degree Days  
Heating Degree Days 29 17  
Month to date heating degree days 171 128  
Since 1 July heating degree days 434 437  
Cooling Degree Days 0 0  
Month to date cooling degree days 0 0  
Year to date cooling degree days 3766 3568  
Moisture  
Dew Point 3 °F    
Average Humidity 31    
Maximum Humidity 43    
Minimum Humidity 18    
Precipitation  
Precipitation 0.00 in 0.01 in 0.22 in (1984)
Month to date precipitation 0.05 0.10  
Year to date precipitation 2.96 3.79  
Snow  
Snow 0.00 in 0.00 in T in (1972)
Month to date snowfall 0.0 0.0  
Since 1 July snowfall 0.0 0.0  
Snow Depth 0.00 in    
Sea Level Pressure  
Sea Level Pressure 30.13 in    
Wind  
Wind Speed 6 mph (NE)    
Max Wind Speed 23 mph    
Max Gust Speed 31 mph    
Visibility 10 miles    
Events      
T = Trace of Precipitation, MM = Missing Value Source: NWS Daily Summary

Daily Weather History Graph

Daily Weather History Graph

Search for Another Location

Airport or City:

Trip Planner

Search our weather history database for the weather conditions in past years. The results will help you decide how hot, cold, wet, or windy it might be!

Date:

Astronomy

Dec. 08, 2013 Rise Set
Actual Time 6:39 AM PST 4:26 PM PST
Civil Twilight 6:10 AM PST 4:54 PM PST
Nautical Twilight 5:38 AM PST 5:26 PM PST
Astronomical Twilight 5:07 AM PST 5:57 PM PST
Moon 11:10 AM PST (12/8) 11:10 PM PST (12/8)
Length of Visible Light 10h 43m
Length of Day
9h 46m
Waxing Crescent, 41% of the Moon is Illuminated
Dec 8
Waxing Crescent
Dec 9
First Quarter
Dec 17
Full
Dec 25
Last Quarter
Jan 1
New

Hourly Weather History & Observations

Time (PST) Temp. Windchill Dew Point Humidity Pressure Visibility Wind Dir Wind Speed Gust Speed Precip Events Conditions
12:56 AM 39.0 °F 31.0 °F 1.0 °F 20% 29.99 in 10.0 mi NW 13.8 mph 25.3 mph N/A   Clear
1:56 AM 37.9 °F 28.5 °F -0.9 °F 19% 30.00 in 10.0 mi NW 17.3 mph 24.2 mph N/A   Clear
2:56 AM 37.0 °F 27.4 °F -0.9 °F 20% 30.03 in 10.0 mi NW 17.3 mph 29.9 mph N/A   Clear
3:56 AM 37.0 °F 31.0 °F -0.9 °F 20% 30.05 in 10.0 mi NNW 8.1 mph - N/A   Clear
4:56 AM 35.1 °F 29.3 °F -0.0 °F 23% 30.07 in 10.0 mi NNE 6.9 mph - N/A   Clear
5:56 AM 33.1 °F 24.9 °F 6.1 °F 32% 30.10 in 10.0 mi NE 10.4 mph - N/A   Clear
6:56 AM 32.0 °F 25.6 °F 7.0 °F 35% 30.14 in 10.0 mi East 6.9 mph - N/A   Scattered Clouds
7:56 AM 34.0 °F 28.8 °F 6.1 °F 31% 30.16 in 10.0 mi NE 5.8 mph - N/A   Scattered Clouds
8:56 AM 36.0 °F 29.6 °F 6.1 °F 29% 30.18 in 10.0 mi NE 8.1 mph - N/A   Scattered Clouds
9:56 AM 37.9 °F 35.5 °F 5.0 °F 25% 30.19 in 10.0 mi ENE 3.5 mph - N/A   Scattered Clouds
10:56 AM 39.0 °F 34.8 °F 3.9 °F 23% 30.17 in 10.0 mi ENE 5.8 mph - N/A   Scattered Clouds
11:56 AM 39.9 °F 36.7 °F 3.0 °F 21% 30.13 in 10.0 mi NE 4.6 mph - N/A   Scattered Clouds
12:56 PM 39.9 °F 37.8 °F 3.0 °F 21% 30.11 in 10.0 mi SSW 3.5 mph - N/A   Scattered Clouds
1:56 PM 41.0 °F - 1.9 °F 20% 30.11 in 10.0 mi Calm Calm - N/A   Scattered Clouds
2:56 PM 41.0 °F - 1.0 °F 19% 30.11 in 10.0 mi Calm Calm - N/A   Scattered Clouds
3:56 PM 39.9 °F - 1.0 °F 20% 30.12 in 10.0 mi Calm Calm - N/A   Partly Cloudy
4:56 PM 37.9 °F 34.4 °F 1.0 °F 21% 30.12 in 10.0 mi ENE 4.6 mph - N/A   Clear
5:56 PM 37.0 °F 33.3 °F 1.9 °F 23% 30.15 in 10.0 mi East 4.6 mph - N/A   Clear
6:56 PM 36.0 °F - 1.9 °F 24% 30.17 in 10.0 mi Calm Calm - N/A   Clear
7:56 PM 35.1 °F 30.1 °F 3.0 °F 26% 30.18 in 10.0 mi ENE 5.8 mph - N/A   Clear
8:56 PM 34.0 °F - 3.9 °F 28% 30.20 in 10.0 mi Calm Calm - N/A   Clear
9:56 PM 33.1 °F - 6.1 °F 32% 30.20 in 10.0 mi Calm Calm - N/A   Clear
10:56 PM 30.0 °F 25.2 °F 10.0 °F 43% 30.23 in 10.0 mi SW 4.6 mph - N/A   Clear
11:56 PM 30.0 °F - 9.0 °F 41% 30.25 in 10.0 mi Calm Calm - N/A   Clear